LAPAN-A3

Last updated on Sat Jul 05 2025 00:02:29 GMT+0000 (Coordinated Universal Time)

1 41603U 16040E 25185.61600759 .00002781 00000+0 98118-4 0 9998 2 41603 97.1370 189.2429 0011207 170.3519 189.7940 15.29999888501614
UTC large
Height (km)
Speed (km/s)
/
Latitude / Longitude
Inclination (degrees)
Orbital Period (minutes)
Azimuth
Elevation
Range (km)
Doppler Factor

Next 0 passes for location: London (51.5072 / 0.1276)

Sorry there are no passes over London.